DW5785 Weather Reports


Display with metric or nautical units.
time (UTC)temp
F
wind
direction
speed
MPH
gust
MPH
rain 1hr
in
rain 24hr
in
rain mn
in
humidity
%
barometer
mb
20260904013042 64 159 5.0 10.0 0.00 0.00 0.00 80 1018.6
20260904012542 64 153 7.0 12.0 0.00 0.00 0.00 80 1018.7
20260904012047 64 166 5.0 10.0 0.00 0.00 0.00 80 1018.7
20260904011542 64 178 4.0 10.0 0.00 0.00 0.00 80 1018.7
20260904011048 64 174 7.0 9.0 0.00 0.00 0.00 80 1018.8
20260904010542 64 156 6.0 12.0 0.00 0.00 0.00 80 1018.8
20260904010042 64 148 4.0 12.0 0.00 0.00 0.00 80 1018.9
20260904005542 64 135 4.0 12.0 0.00 0.00 0.00 80 1018.9
20260904005050 64 162 5.0 11.0 0.00 0.00 0.00 80 1019.0
20260904004545 64 144 8.0 11.0 0.00 0.00 0.00 80 1018.8
20260904004048 64 165 9.0 13.0 0.00 0.00 0.00 80 1018.7
20260904003548 64 152 5.0 11.0 0.00 0.00 0.00 80 1018.8
20260904003045 64 141 9.0 11.0 0.00 0.00 0.00 81 1018.9
20260904002551 63 183 5.0 10.0 0.00 0.00 0.00 81 1019.0
20260904002050 63 140 7.0 10.0 0.00 0.00 0.00 81 1018.9
20260904001542 63 176 6.0 9.0 0.00 0.00 0.00 81 1019.0
20260904001045 63 170 8.0 9.0 0.00 0.00 0.00 81 1019.2
20260904000545 64 104 4.0 10.0 0.00 0.00 0.00 81 1019.3
20260904000042 64 175 7.0 10.0 0.00 0.00 0.00 81 1019.2
20260903235542 64 143 6.0 10.0 0.00 0.00 0.00 80 1019.2
20260903235050 64 155 6.0 9.0 0.00 0.00 0.00 80 1019.2
20260903234542 64 146 3.0 11.0 0.00 0.00 0.00 80 1019.3
20260903234042 64 149 6.0 10.0 0.00 0.00 0.00 80 1019.3
20260903233543 64 166 3.0 10.0 0.00 0.00 0.00 80 1019.4
20260903233045 64 162 6.0 11.0 0.00 0.00 0.00 80 1019.4
20260903232542 64 101 7.0 11.0 0.00 0.00 0.00 80 1019.4
20260903232047 64 139 4.0 8.0 0.00 0.00 0.00 80 1019.6
20260903231542 64 137 4.0 9.0 0.00 0.00 0.00 80 1019.6
20260903231043 64 173 5.0 9.0 0.00 0.00 0.00 80 1019.6
20260903230545 64 174 6.0 11.0 0.00 0.00 0.00 80 1019.5
20260903230048 63 161 8.0 13.0 0.00 0.00 0.00 81 1019.7
20260903225542 63 154 4.0 12.0 0.00 0.00 0.00 81 1019.6
20260903225050 63 131 6.0 11.0 0.00 0.00 0.00 81 1019.6
20260903224546 63 151 8.0 12.0 0.00 0.00 0.00 81 1019.7
20260903224045 63 157 6.0 12.0 0.00 0.00 0.00 81 1019.6
20260903223542 63 146 6.0 11.0 0.00 0.00 0.00 81 1019.6
20260903223042 64 160 8.0 12.0 0.00 0.00 0.00 80 1019.4
20260903222545 63 138 6.0 14.0 0.00 0.00 0.00 80 1019.4
20260903222044 63 150 6.0 12.0 0.00 0.00 0.00 81 1019.4
20260903221542 63 186 6.0 13.0 0.00 0.00 0.00 81 1019.6
20260903221045 63 157 8.0 11.0 0.00 0.00 0.00 81 1019.6
20260903220542 63 199 7.0 9.0 0.00 0.00 0.00 81 1019.6
20260903220042 64 144 4.0 10.0 0.00 0.00 0.00 80 1019.6
20260903215548 64 120 9.0 11.0 0.00 0.00 0.00 80 1019.7
20260903215050 64 161 6.0 10.0 0.00 0.00 0.00 80 1019.8
20260903214542 64 151 7.0 11.0 0.00 0.00 0.00 80 1019.8
20260903214042 64 97 5.0 10.0 0.00 0.00 0.00 80 1019.8
20260903213542 64 161 6.0 11.0 0.00 0.00 0.00 79 1019.8
20260903213042 64 167 8.0 12.0 0.00 0.00 0.00 79 1019.8
20260903212545 64 155 8.0 10.0 0.00 0.00 0.00 79 1019.8
20260903212047 64 170 9.0 10.0 0.00 0.00 0.00 79 1019.9
20260903211548 64 138 8.0 11.0 0.00 0.00 0.00 79 1019.8
20260903211045 64 163 5.0 12.0 0.00 0.00 0.00 79 1019.8
20260903210545 64 197 8.0 12.0 0.00 0.00 0.00 79 1019.9
20260903210042 64 168 3.0 13.0 0.00 0.00 0.00 79 1020.0
20260903205553 64 158 10.0 12.0 0.00 0.00 0.00 80 1020.0
20260903205045 64 168 9.0 11.0 0.00 0.00 0.00 80 1020.0
20260903204542 64 146 7.0 11.0 0.00 0.00 0.00 80 1020.2
20260903204051 63 135 6.0 10.0 0.00 0.00 0.00 80 1020.2
20260903203542 63 184 7.0 8.0 0.00 0.00 0.00 80 1020.2
20260903203042 64 161 4.0 10.0 0.00 0.00 0.00 80 1020.2
20260903202547 64 116 7.0 10.0 0.00 0.00 0.00 79 1020.1
20260903202042 64 127 5.0 14.0 0.00 0.00 0.00 79 1020.2
20260903201542 64 147 6.0 11.0 0.00 0.00 0.00 79 1020.2
20260903201045 64 152 5.0 8.0 0.00 0.00 0.00 79 1020.1
20260903200548 64 146 3.0 9.0 0.00 0.00 0.00 79 1020.1
20260903200045 64 135 3.0 7.0 0.00 0.00 0.00 79 1020.1
20260903195547 64 120 3.0 8.0 0.00 0.00 0.00 78 1020.0
20260903195048 64 141 5.0 8.0 0.00 0.00 0.00 78 1020.0
20260903194543 64 139 5.0 8.0 0.00 0.00 0.00 78 1020.0
20260903194045 64 107 6.0 11.0 0.00 0.00 0.00 78 1019.9
20260903193548 64 124 4.0 10.0 0.00 0.00 0.00 78 1020.0
20260903193051 64 143 4.0 7.0 0.00 0.00 0.00 78 1020.1
20260903192550 64 147 5.0 5.0 0.00 0.00 0.00 78 1020.2
20260903192045 64 112 3.0 9.0 0.00 0.00 0.00 77 1020.2
20260903191545 64 97 4.0 10.0 0.00 0.00 0.00 77 1020.2
20260903191042 64 107 5.0 9.0 0.00 0.00 0.00 77 1020.3
20260903190542 64 142 7.0 11.0 0.00 0.00 0.00 76 1020.3
20260903190042 64 84 5.0 6.0 0.00 0.00 0.00 76 1020.4
20260903185544 65 122 4.0 7.0 0.00 0.00 0.00 76 1020.5
20260903185042 65 142 2.0 10.0 0.00 0.00 0.00 75 1020.4
20260903184548 65 169 4.0 9.0 0.00 0.00 0.00 74 1020.4
20260903184045 65 139 3.0 9.0 0.00 0.00 0.00 74 1020.4
20260903183542 65 214 2.0 9.0 0.00 0.00 0.00 74 1020.5
20260903183042 65 158 3.0 10.0 0.00 0.00 0.00 73 1020.6
20260903182550 65 158 5.0 9.0 0.00 0.00 0.00 73 1020.6
20260903182042 66 201 6.0 11.0 0.00 0.00 0.00 72 1020.5
20260903181542 66 127 11.0 14.0 0.00 0.00 0.00 72 1020.3
20260903181042 66 170 5.0 10.0 0.00 0.00 0.00 71 1020.4
20260903180542 66 156 3.0 10.0 0.00 0.00 0.00 70 1020.2
20260903180048 66 190 4.0 8.0 0.00 0.00 0.00 70 1020.1
20260903175550 67 190 7.0 13.0 0.00 0.00 0.00 69 1020.2
20260903175042 67 231 10.0 19.0 0.00 0.00 0.00 69 1020.2
20260903174543 67 208 6.0 14.0 0.00 0.00 0.00 68 1020.2
20260903174048 67 212 8.0 12.0 0.00 0.00 0.00 68 1020.1
20260903173542 67 239 8.0 15.0 0.00 0.00 0.00 68 1020.1
20260903173048 67 149 3.0 15.0 0.00 0.00 0.00 68 1020.1
20260903172550 67 206 3.0 15.0 0.00 0.00 0.00 67 1020.0
20260903172048 67 216 7.0 13.0 0.00 0.00 0.00 67 1020.0
20260903171542 68 206 1.0 13.0 0.00 0.00 0.00 66 1019.9
20260903171045 68 208 8.0 14.0 0.00 0.00 0.00 65 1020.0
20260903170545 68 218 7.0 21.0 0.00 0.00 0.00 65 1019.9
20260903170044 68 192 9.0 15.0 0.00 0.00 0.00 64 1020.0
20260903165550 68 77 7.0 17.0 0.00 0.00 0.00 64 1019.9
20260903165042 69 124 5.0 15.0 0.00 0.00 0.00 63 1019.8
20260903164545 69 221 9.0 14.0 0.00 0.00 0.00 63 1019.6
20260903164042 69 205 7.0 17.0 0.00 0.00 0.00 62 1019.5
20260903163550 69 181 10.0 12.0 0.00 0.00 0.00 61 1019.5
20260903163045 70 145 5.0 12.0 0.00 0.00 0.00 61 1019.6
20260903162542 70 231 6.0 15.0 0.00 0.00 0.00 60 1019.6
20260903162042 70 100 6.0 15.0 0.00 0.00 0.00 59 1019.5
20260903161545 70 201 10.0 17.0 0.00 0.00 0.00 58 1019.5
20260903161042 70 199 5.0 15.0 0.00 0.00 0.00 58 1019.5
20260903160544 70 237 5.0 17.0 0.00 0.00 0.00 58 1019.3
20260903160045 71 184 6.0 17.0 0.00 0.00 0.00 57 1019.4
20260903155542 72 211 13.0 14.0 0.00 0.00 0.00 55 1019.4
20260903155045 72 210 4.0 9.0 0.00 0.00 0.00 54 1019.3
20260903154548 72 138 1.0 13.0 0.00 0.00 0.00 54 1019.3
20260903154045 72 174 11.0 14.0 0.00 0.00 0.00 53 1019.3
20260903153544 72 184 10.0 10.0 0.00 0.00 0.00 53 1019.2
20260903153042 72 182 5.0 11.0 0.00 0.00 0.00 53 1019.2
20260903152545 72 170 5.0 12.0 0.00 0.00 0.00 52 1019.1
20260903152042 72 154 7.0 8.0 0.00 0.00 0.00 52 1019.1
20260903151542 72 126 4.0 9.0 0.00 0.00 0.00 52 1019.2
20260903151042 72 187 6.0 10.0 0.00 0.00 0.00 52 1019.2
20260903150550 72 168 3.0 12.0 0.00 0.00 0.00 51 1019.3
20260903150051 72 146 4.0 11.0 0.00 0.00 0.00 51 1019.3
20260903145545 72 177 5.0 12.0 0.00 0.00 0.00 51 1019.3
20260903145042 72 149 5.0 11.0 0.00 0.00 0.00 51 1019.3
20260903144551 72 163 8.0 13.0 0.00 0.00 0.00 51 1019.3
20260903144042 73 120 7.0 11.0 0.00 0.00 0.00 51 1019.4
20260903143550 73 119 5.0 7.0 0.00 0.00 0.00 51 1019.3
20260903143045 72 149 6.0 6.0 0.00 0.00 0.00 51 1019.3
20260903142545 72 135 5.0 9.0 0.00 0.00 0.00 51 1019.2
20260903142045 72 157 2.0 10.0 0.00 0.00 0.00 51 1019.2
20260903141551 72 141 5.0 11.0 0.00 0.00 0.00 50 1019.5
20260903141045 73 222 8.0 11.0 0.00 0.00 0.00 50 1019.5
20260903140544 73 179 6.0 12.0 0.00 0.00 0.00 49 1019.4
20260903140045 73 113 4.0 9.0 0.00 0.00 0.00 50 1019.4
20260903135546 73 168 6.0 7.0 0.00 0.00 0.00 50 1019.5
20260903135045 73 153 3.0 9.0 0.00 0.00 0.00 50 1019.6
20260903134542 73 207 7.0 8.0 0.00 0.00 0.00 50 1019.5
20260903134042 72 207 1.0 8.0 0.00 0.00 0.00 50 1019.5
20260903133544 72 181 5.0 12.0 0.00 0.00 0.00 50 1019.7
20260903133045 72 272 2.0 12.0 0.00 0.00 0.00 50 1019.9
20260903132545 72 224 3.0 8.0 0.00 0.00 0.00 50 1019.7
20260903132048 72 156 3.0 11.0 0.00 0.00 0.00 50 1019.6
20260903131545 72 122 5.0 13.0 0.00 0.00 0.00 49 1019.4
20260903131042 73 132 13.0 13.0 0.00 0.00 0.00 48 1019.5
20260903130547 73 165 5.0 11.0 0.00 0.00 0.00 49 1019.7
20260903130045 73 158 12.0 12.0 0.00 0.00 0.00 49 1019.6
20260903125545 72 233 4.0 14.0 0.00 0.00 0.00 49 1019.4
20260903125042 72 106 6.0 14.0 0.00 0.00 0.00 50 1019.5
20260903124545 72 207 13.0 18.0 0.00 0.00 0.00 50 1019.4
20260903124042 72 189 15.0 17.0 0.00 0.00 0.00 51 1019.5
20260903123547 72 203 9.0 20.0 0.00 0.00 0.00 50 1019.6
20260903123042 72 227 9.0 15.0 0.00 0.00 0.00 50 1019.5
20260903122542 72 106 7.0 15.0 0.00 0.00 0.00 49 1019.4
20260903122042 72 184 6.0 14.0 0.00 0.00 0.00 49 1019.6
20260903121545 72 245 5.0 14.0 0.00 0.00 0.00 50 1019.6
20260903121042 71 213 2.0 16.0 0.00 0.00 0.00 49 1019.8
20260903120550 71 252 5.0 14.0 0.00 0.00 0.00 49 1019.7
20260903120042 72 164 12.0 17.0 0.00 0.00 0.00 49 1019.8
20260903115551 72 181 4.0 19.0 0.00 0.00 0.00 50 1019.7
20260903115042 72 217 4.0 13.0 0.00 0.00 0.00 51 1019.6
20260903114542 71 179 9.0 13.0 0.00 0.00 0.00 51 1019.7
20260903114042 72 129 6.0 14.0 0.00 0.00 0.00 51 1019.7
20260903113544 72 160 9.0 11.0 0.00 0.00 0.00 50 1019.8
20260903113045 72 202 4.0 12.0 0.00 0.00 0.00 50 1019.8
20260903112545 72 210 4.0 13.0 0.00 0.00 0.00 50 1019.7
20260903112042 71 104 4.0 9.0 0.00 0.00 0.00 51 1019.8
20260903111545 71 174 1.0 8.0 0.00 0.00 0.00 51 1019.9
20260903111051 71 156 6.0 8.0 0.00 0.00 0.00 52 1020.1
20260903110544 71 133 5.0 10.0 0.00 0.00 0.00 51 1020.2
20260903110042 71 215 8.0 12.0 0.00 0.00 0.00 50 1020.3
20260903105542 71 164 4.0 9.0 0.00 0.00 0.00 50 1020.2
20260903105051 70 206 8.0 13.0 0.00 0.00 0.00 50 1020.4
20260903104542 70 219 4.0 12.0 0.00 0.00 0.00 50 1020.5
20260903104042 71 212 7.0 11.0 0.00 0.00 0.00 50 1020.7
20260903103550 70 114 5.0 11.0 0.00 0.00 0.00 51 1020.6
20260903103045 71 119 6.0 10.0 0.00 0.00 0.00 52 1020.6
20260903102542 71 162 5.0 11.0 0.00 0.00 0.00 52 1020.7
20260903102042 71 237 7.0 9.0 0.00 0.00 0.00 54 1020.6
20260903101548 71 130 6.0 11.0 0.00 0.00 0.00 52 1020.6
20260903101045 71 157 4.0 10.0 0.00 0.00 0.00 54 1020.6
20260903100550 70 201 5.0 8.0 0.00 0.00 0.00 54 1020.7
20260903100048 71 190 8.0 13.0 0.00 0.00 0.00 52 1020.8
20260903095542 70 258 4.0 7.0 0.00 0.00 0.00 54 1020.7
20260903095042 70 100 7.0 11.0 0.00 0.00 0.00 54 1020.8
20260903094545 69 150 9.0 12.0 0.00 0.00 0.00 54 1020.8
20260903094045 69 184 7.0 12.0 0.00 0.00 0.00 54 1020.8
20260903093544 69 188 6.0 13.0 0.00 0.00 0.00 55 1020.8
20260903093045 69 230 3.0 11.0 0.00 0.00 0.00 55 1020.8
20260903092542 69 247 7.0 9.0 0.00 0.00 0.00 55 1020.8
20260903092045 68 158 6.0 10.0 0.00 0.00 0.00 55 1020.8
20260903091542 68 201 7.0 11.0 0.00 0.00 0.00 54 1020.8
20260903091045 69 197 6.0 10.0 0.00 0.00 0.00 54 1020.7
20260903090547 68 198 5.0 13.0 0.00 0.00 0.00 53 1020.6
20260903090051 69 220 4.0 11.0 0.00 0.00 0.00 54 1020.7
20260903085545 69 191 4.0 11.0 0.00 0.00 0.00 54 1020.8
20260903085051 69 124 5.0 9.0 0.00 0.00 0.00 53 1020.8
20260903084542 69 137 3.0 10.0 0.00 0.00 0.00 54 1020.7
20260903084048 68 146 3.0 9.0 0.00 0.00 0.00 57 1020.8
20260903083544 68 331 4.0 12.0 0.00 0.00 0.00 57 1020.9
20260903083042 68 156 7.0 12.0 0.00 0.00 0.00 58 1020.8
20260903082542 68 160 10.0 11.0 0.00 0.00 0.00 58 1020.8
20260903082042 68 168 6.0 9.0 0.00 0.00 0.00 59 1020.8
20260903081545 68 100 2.0 10.0 0.00 0.00 0.00 59 1020.8
20260903081042 68 112 6.0 10.0 0.00 0.00 0.00 61 1020.9
20260903080544 68 253 2.0 5.0 0.00 0.00 0.00 64 1021.0
20260903080042 68 135 1.0 6.0 0.00 0.00 0.00 65 1020.9
20260903075548 67 38 2.0 6.0 0.00 0.00 0.00 66 1021.0
20260903075048 67 145 3.0 5.0 0.00 0.00 0.00 67 1021.1
20260903074542 66 137 2.0 8.0 0.00 0.00 0.00 67 1021.0
20260903074042 66 215 2.0 5.0 0.00 0.00 0.00 66 1021.0
20260903073550 66 219 2.0 4.0 0.00 0.00 0.00 68 1021.0
20260903073048 66 180 1.0 5.0 0.00 0.00 0.00 68 1021.1
20260903072548 65 244 3.0 5.0 0.00 0.00 0.00 70 1021.2
20260903072042 65 287 0.0 4.0 0.00 0.00 0.00 71 1021.1
20260903071542 64 246 2.0 7.0 0.00 0.00 0.00 72 1021.1
20260903071042 64 197 6.0 7.0 0.00 0.00 0.00 71 1021.1
20260903070547 64 216 2.0 6.0 0.00 0.00 0.00 71 1021.1
20260903070042 64 181 3.0 7.0 0.00 0.00 0.00 71 1021.1
20260903065545 64 222 2.0 6.0 0.00 0.00 0.00 71 1021.2
20260903065048 64 135 2.0 6.0 0.00 0.00 0.00 72 1021.2
20260903064544 63 174 3.0 7.0 0.00 0.00 0.00 73 1021.2
20260903064042 63 228 1.0 7.0 0.00 0.00 0.00 73 1021.2
20260903063545 63 174 3.0 7.0 0.00 0.00 0.00 74 1021.1
20260903063048 63 166 0.0 5.0 0.00 0.00 0.00 77 1021.1
20260903062542 62 116 3.0 5.0 0.00 0.00 0.00 78 1021.0
20260903062045 62 76 1.0 4.0 0.00 0.00 0.00 79 1021.0
20260903061544 61 135 3.0 5.0 0.00 0.00 0.00 79 1021.0
20260903061042 61 133 5.0 5.0 0.00 0.00 0.00 80 1021.0
20260903060548 60 188 1.0 5.0 0.00 0.00 0.00 80 1020.9
20260903060048 61 193 3.0 4.0 0.00 0.00 0.00 81 1021.0
20260903055548 61 265 1.0 3.0 0.00 0.00 0.00 81 1020.9
20260903055045 61 265 1.0 3.0 0.00 0.00 0.00 80 1020.9
20260903054547 61 265 0.0 1.0 0.00 0.00 0.00 81 1020.8
20260903054042 61 265 0.0 3.0 0.00 0.00 0.00 80 1020.9
20260903053542 60 260 2.0 6.0 0.00 0.00 0.00 80 1020.8
20260903053042 60 189 5.0 5.0 0.00 0.00 0.00 81 1021.0
20260903052545 60 187 3.0 3.0 0.00 0.00 0.00 82 1021.0
20260903052042 60 188 0.0 4.0 0.00 0.00 0.00 82 1020.8
20260903051544 59 128 2.0 3.0 0.00 0.00 0.00 82 1020.7
20260903051042 59 128 0.0 4.0 0.00 0.00 0.00 82 1020.7
20260903050545 59 171 2.0 5.0 0.00 0.00 0.00 82 1020.7
20260903050042 59 177 1.0 4.0 0.00 0.00 0.00 82 1020.7
20260903045542 59 145 0.0 5.0 0.00 0.00 0.00 82 1020.8
20260903045042 59 124 2.0 5.0 0.00 0.00 0.00 82 1020.8
20260903044553 59 147 2.0 5.0 0.00 0.00 0.00 81 1020.7
20260903044051 60 141 4.0 4.0 0.00 0.00 0.00 81 1020.7
20260903043542 60 146 3.0 5.0 0.00 0.00 0.00 81 1020.7
20260903043045 60 149 3.0 4.0 0.00 0.00 0.00 81 1020.7
20260903042542 60 170 1.0 4.0 0.00 0.00 0.00 82 1020.7
20260903042042 59 156 2.0 5.0 0.00 0.00 0.00 82 1020.6
20260903041544 59 154 2.0 5.0 0.00 0.00 0.00 82 1020.6
20260903041045 59 145 4.0 5.0 0.00 0.00 0.00 82 1020.6
20260903040542 59 151 2.0 3.0 0.00 0.00 0.00 82 1020.7
20260903040045 60 108 2.0 3.0 0.00 0.00 0.00 81 1020.6
20260903035542 60 106 2.0 4.0 0.00 0.00 0.00 79 1020.7
20260903035045 60 123 3.0 3.0 0.00 0.00 0.00 79 1020.6
20260903034542 60 193 1.0 4.0 0.00 0.00 0.00 79 1020.7
20260903034042 60 183 1.0 3.0 0.00 0.00 0.00 80 1020.7
20260903033545 60 183 2.0 4.0 0.00 0.00 0.00 80 1020.6
20260903033042 60 142 2.0 3.0 0.00 0.00 0.00 79 1020.7
20260903032542 60 142 2.0 3.0 0.00 0.00 0.00 78 1020.7
20260903032044 60 142 1.0 2.0 0.00 0.00 0.00 78 1020.7
20260903031542 60 142 0.0 0.0 0.00 0.00 0.00 78 1020.8
20260903031045 60 143 0.0 2.0 0.00 0.00 0.00 79 1020.7
20260903030542 60 143 1.0 2.0 0.00 0.00 0.00 79 1020.8
20260903030045 60 143 1.0 2.0 0.00 0.00 0.00 78 1020.8
20260903025545 61 142 1.0 2.0 0.00 0.00 0.00 77 1020.8
20260903025044 61 143 0.0 0.0 0.00 0.00 0.00 77 1020.7
20260903024548 61 142 0.0 1.0 0.00 0.00 0.00 77 1020.6
20260903024042 61 142 0.0 2.0 0.00 0.00 0.00 77 1020.7
20260903023542 61 142 1.0 2.0 0.00 0.00 0.00 77 1020.8
20260903023042 61 142 0.0 3.0 0.00 0.00 0.00 77 1020.8
20260903022542 60 142 1.0 3.0 0.00 0.00 0.00 77 1020.7
20260903022047 60 142 0.0 5.0 0.00 0.00 0.00 77 1020.7
20260903021545 60 199 1.0 2.0 0.00 0.00 0.00 78 1020.7
20260903021048 60 224 2.0 4.0 0.00 0.00 0.00 78 1020.7
20260903020542 60 151 2.0 4.0 0.00 0.00 0.00 78 1020.7
20260903020045 60 182 3.0 4.0 0.00 0.00 0.00 78 1020.6
20260903015548 60 155 4.0 6.0 0.00 0.00 0.00 78 1020.6
20260903015047 61 138 4.0 5.0 0.00 0.00 0.00 77 1020.7
20260903014545 61 145 2.0 3.0 0.00 0.00 0.00 75 1020.7
20260903014042 61 202 0.0 1.0 0.00 0.00 0.00 75 1020.7
20260903013542 61 202 0.0 2.0 0.00 0.00 0.00 74 1020.8